Regional Weather Roundup
Issued by NWS

Home | Current Version | Previous Version | Text Only | Print | Product List | Glossary Off
Versions: 1 2 3 4 5 6 7 8 9 10 11 12 13 14 15 16 17 18 19 20 21 22 23 24 25 26 27 28 29 30 31 32 33 34 35 36 37 38 39 40 41 42 43 44 45 46 47 48 49 50

515
ASUS45 KTFX 210110
RWRMT
MONTANA REGIONAL WEATHER ROUNDUP
NATIONAL WEATHER SERVICE GREAT FALLS MT
700 PM MDT FRI APR 20 2018

NOTE: "FAIR" INDICATES FEW OR NO CLOUDS BELOW 12000 FEET WITH NO
SIGNIFICANT WEATHER AND/OR OBSTRUCTIONS TO VISIBILITY.

MTZ001>007-043-210200-
WEST OF THE DIVIDE

CITY           SKY/WX    TMP DP  RH WIND       PRES   REMARKS
KALISPELL      FAIR      62  30  29 S13       30.06F
MISSOULA       FAIR      63  26  24 S5        30.06F
BUTTE          FAIR      59  18  20 N9        30.11S
MULLAN PASS    FAIR      46  26  45 VRB3      30.15F
ANACONDA         N/A     57  19  23 N7        30.11S
DEER LODGE       N/A     57  21  24 NW9       30.13S
HAMILTON         N/A     63  21  20 MISG      30.09S
PLAINS           N/A     65  31  28 NW9       30.07
RONAN            N/A     61  30  31 E5        30.09F
$$

MTZ008-052>055-210200-
SOUTHWEST MONTANA

CITY           SKY/WX    TMP DP  RH WIND       PRES   REMARKS
BOZEMAN        FAIR      62  24  23 W10       30.07S
DILLON         FAIR      59  21  23 NE8       30.07S
ENNIS          SUNNY     57  27  30 N13       30.12S
W YELLOWSTONE  FAIR      48  23  37 NE13      30.09R
THREE FORKS      N/A     63  22  21 NE2       30.07S
$$

MTZ009-010-012-014-046-048-049-054-210200-
EAST SLOPES AND CENTRAL MONTANA

CITY           SKY/WX    TMP DP  RH WIND       PRES   REMARKS
CUT BANK       FAIR      56  21  25 W16       30.05F
GREAT FALLS    FAIR      63  17  17 W6        30.05F
HELENA         FAIR      63  21  20 W10       30.08F
AUGUSTA        FAIR      59  16  19 W8        30.07S
BOWMANS CRNR   FAIR      58  14  17 SW9       30.06S
CHOTEAU          N/A     61  14  16 SW5G12    30.07S
FAIRFIELD      FAIR      62  18  17 W8        30.05S
POWER          FAIR      62  13  15 CALM      30.05S
RAYNESFORD     FAIR      62  17  18 NW3       30.07S
ULM            FAIR      64  17  16 NW5       30.05F
WHITE SULPHUR    N/A     59  19  21 W6G12     30.08R
$$

MTZ011-013-016-021-045-047-050-051-210200-
NORTH CENTRAL MONTANA

CITY           SKY/WX    TMP DP  RH WIND       PRES   REMARKS
HAVRE          FAIR      62  25  24 SW8       30.06S
LEWISTOWN      FAIR      61  33  35 E9        30.08R
N BAR RANCH    FAIR      57  28  33 NE7       30.12S
CHINOOK          N/A     64  23  20 W3        30.05F
GEYSER         FAIR      60  30  31 NE8       30.07S
GRASS RANGE    FAIR      60  30  32 E10       30.05S
STANFORD       FAIR      58  28  31 E7        30.09R
$$

MTZ017>020-022>027-061-062-210200-
NORTHEAST MONTANA

CITY           SKY/WX    TMP DP  RH WIND       PRES   REMARKS
GLASGOW        FAIR      67  31  26 E5        30.06S
GLENDIVE       FAIR      61  35  37 SE14      30.10R
JORDAN           N/A     65  34  31 E5        30.06S
MALTA          SUNNY     64  34  32 CALM      30.04S
SIDNEY         FAIR      62  35  36 S16       30.10R
WOLF POINT     FAIR      69  33  26 VRB5      30.06F
PLENTYWOOD       N/A     61  36  39 SE14      30.10S
POPLAR           N/A     64  34  32 SE13      30.08R
$$

MTZ028>42-056>058-210200-
SOUTHCENTRAL AND SOUTHEAST MONTANA

CITY           SKY/WX    TMP DP  RH WIND       PRES   REMARKS
BAKER          FAIR      54  35  48 SE21      30.12R
BILLINGS       FAIR      61  37  41 E7        30.07R
LIVINGSTON     FAIR      59  29  31 NE5       30.07S
MILES CITY     FAIR      64  36  35 N5        30.05S
BIG TIMBER     SUNNY     61  25  25 NE5       30.09S
FORSYTH          N/A     63  36  36 N5        30.05F
HARLOWTON      FAIR      60  30  31 SE14      30.08R
LAUREL           N/A     63  36  36 E8G14     30.07R
ROUNDUP          N/A     62  31  31 NE6       29.99R
$$

REGIONAL REPORTS...DAKOTAS

CITY           SKY/WX    TMP DP  RH WIND       PRES   REMARKS
WILLISTON      FAIR      63  29  27 SE13      30.12S
MINOT          MOCLDY    55  34  45 SE16      30.20S
DICKINSON      FAIR      54  34  46 S16       30.15R
BEACH          FAIR      57  32  38 SE16      30.15R
CROSBY         FAIR      54  37  54 SE13      30.15S
TIOGA          FAIR      52  39  62 E13       30.17S
WATFORD CITY   FAIR      61  32  33 SE16      30.12F
BISMARCK       FAIR      54  30  40 S16       30.26R
GRAND FORKS    FAIR      48  38  68 S7        30.34F
FARGO          FAIR      51  36  56 S12       30.35F
BUFFALO SD       N/A     48  38  68 S31G40    30.08R
RAPID CITY     CLOUDY    39  37  92 SE16      30.22R WCI  30
$$

REGIONAL REPORTS...WYOMING/IDAHO/WASHINGTON

CITY           SKY/WX    TMP DP  RH WIND       PRES   REMARKS
GILLETTE       CLOUDY    45  35  68 SE22      30.12R
SHERIDAN       FAIR      56  33  42 SE13      30.07S
BUFFALO WY     CLOUDY    49  31  49 SE12      30.12R
CODY           FAIR      57  31  37 N23G29    30.06R
YELLOWSTONE LA   N/A     48  20  32 VRB5      30.14R
IDAHO FALLS    FAIR      64  22  20 N12       30.03R
SALMON         FAIR      65  26  23 N7        30.05S
BOISE          FAIR      67  24  19 NW16      30.07F
SPOKANE        FAIR      60  31  33 SW14      30.12F
$$

REGIONAL REPORTS...ALBERTA

CITY           SKY/WX    TMP DP  RH WIND       PRES   REMARKS
CALGARY        MOSUNNY   50  19  29 S13       30.00S
CARDSTON         N/A     55  30  38 S9          N/A
EDMONTON       SUNNY     55  28  35 SE13      29.95F
FORT MCMURRAY  CLOUDY    59  30  33 W9G17     29.89S
HIGH LEVEL     MOSUNNY   57  19  23 VRB3      29.77S
LETHBRIDGE     PTSUNNY   61  25  25 SW14      30.00F
LLOYDMINSTER   PTSUNNY   54  34  47 VRB2      30.00F
MEDICINE HAT   CLOUDY    63  27  25 SW7       30.02S
MILK RIVER       N/A     59  21  23 W12         N/A
PEACE RIVER    PTSUNNY   48  28  46 SW6       29.88F
PINCHER CREEK  PTSUNNY   54  28  37 W18G24    30.02S
$$

REGIONAL REPORTS...SASKATCHEWAN

CITY           SKY/WX    TMP DP  RH WIND       PRES   REMARKS
CORONACH         N/A     59  36  41 SE8         N/A
CYPRESS HILLS    N/A     50  23  34 W7          N/A
ESTEVAN        PTCLDY    54  36  50 SE10      30.16S
MOOSE JAW        N/A     57  39  51 SE13        N/A
PRINCE ALBERT  PTCLDY    43  34  70 E6        30.08F
REGINA         PTCLDY    55  41  58 SE14      30.12F
ROCKGLEN         N/A     59  28  31 S6          N/A
SASKATOON      MOSUNNY   63  41  45 SW8       30.02F
SWIFT CURRENT  SUNNY     57  37  47 S10       30.03S
VAL MARIE        N/A     61  30  31 W8          N/A
$$




USA.gov is the U.S. government's official web portal to all federal, state and local government web resources and services.